Flag for Romania Weather past 2 weeks in Oradea, Romania

Now
63 °F

Light rain. Partly sunny.


Feels Like: 63 °F
Forecast: 63 / 74 °F
Wind: 9 mph from South

Location: Oradea Airport

Current Time: Sep 20, 2014 at 11:12:03 AM

Latest Report: Sep 20, 2014 at 10:30 AM


Visibility: N/A

Pressure: 30.07 "Hg

Humidity: 83%

Dew point: 57 °F

Location of OradeaLocation

Historic Weather in Oradea — Graph

°F

Oradea temperature yesterday

Maximum temperature yesterday: 77 °F (at 2:30 PM)
Minimum temperature yesterday: 50 °F (at 5:00 AM)
Average temperature yesterday: 64 °F

Past Weeks' High & Low Weather Summary

 TemperatureHumidityPressure
High82 °F (Sep 9, 2:30 PM)100% (Sep 15, 9:00 AM)30.18 "Hg (Sep 15, 9:00 AM)
Low50 °F (Sep 18, 4:00 AM)32% (Sep 9, 3:30 PM)29.86 "Hg (Sep 11, 3:30 PM)
Average66 °F72%30.02 "Hg
* Reported Sep 5 10:00 AM — Sep 20 10:00 AM, Oradea, Weather by CustomWeather, © 2014

Note: Actual official high and low records may vary slightly from our data, if they occured in-between our weather recording intervals... More about our weather records

Advertising

Oradea weather history for previous 24 hours

 ConditionsComfort  
Time TempWeatherWind HumidityBarometerVisibility
10:00 AM
Sep 20
64 °FLight rain. Scattered clouds.14 mph73%30.07 "HgN/A
9:30 AM66 °FPartly sunny.12 mph68%30.04 "HgN/A
9:00 AM66 °FPartly sunny.14 mph64%30.07 "HgN/A
8:30 AM64 °FBroken clouds.9 mph73%30.07 "HgN/A
8:00 AM63 °FPassing clouds.7 mph73%30.07 "HgN/A
7:30 AM64 °FPassing clouds.7 mph68%30.07 "HgN/A
7:00 AM61 °FPassing clouds.2 mph72%30.07 "HgN/A
6:30 AM61 °FPassing clouds.5 mph72%30.07 "HgN/A
5:30 AM61 °FClear.5 mph72%30.07 "Hg10 mi
5:00 AM61 °FPassing clouds.7 mph72%30.07 "HgN/A
4:00 AM63 °FPassing clouds.7 mph68%30.07 "HgN/A
3:00 AM61 °FPartly cloudy.5 mph72%30.09 "HgN/A
2:00 AM61 °FPartly cloudy.5 mph72%30.09 "HgN/A
1:00 AM61 °FPassing clouds.5 mph72%30.09 "HgN/A
12:00 AM61 °FPassing clouds.5 mph72%30.09 "HgN/A
11:00 PM
Sep 19
63 °FMild.5 mph64%30.09 "HgN/A
10:30 PM64 °FClear.5 mph60%30.09 "Hg10 mi
10:00 PM66 °FClear.5 mph60%30.09 "Hg10 mi
9:30 PM66 °FClear.5 mph56%30.09 "Hg10 mi
9:00 PM66 °FClear.7 mph56%30.09 "Hg10 mi
8:30 PM68 °FSunny.5 mph53%30.09 "Hg10 mi
8:00 PM68 °FSunny.5 mph53%30.09 "Hg10 mi
7:30 PM70 °FSunny.5 mph53%30.12 "Hg10 mi
7:00 PM72 °FSunny.5 mph47%30.12 "Hg10 mi
6:30 PM73 °FSunny.5 mph41%30.12 "Hg10 mi
6:00 PM72 °FSunny.7 mph44%30.12 "Hg10 mi
5:30 PM73 °FSunny.7 mph41%30.12 "Hg10 mi
5:00 PM73 °FSunny.12 mph41%30.12 "Hg10 mi
4:30 PM75 °FPassing clouds.9 mph36%30.12 "HgN/A
4:00 PM75 °FPassing clouds.9 mph36%30.12 "HgN/A
3:30 PM77 °FPassing clouds.7 mph34%30.12 "HgN/A
3:00 PM75 °FPassing clouds.12 mph36%30.15 "HgN/A
2:30 PM77 °FPassing clouds.5 mph32%30.15 "HgN/A
2:00 PM75 °FPassing clouds.5 mph34%30.15 "HgN/A
1:30 PM75 °FPassing clouds.5 mph34%30.15 "HgN/A
1:00 PM73 °FPassing clouds.5 mph33%30.18 "HgN/A
12:00 PM72 °FSunny.7 mph41%30.18 "Hg10 mi
11:30 AM70 °FPassing clouds.7 mph46%30.18 "HgN/A
11:00 AM68 °FPassing clouds.7 mph53%30.18 "HgN/A
Weather by CustomWeather, © 2014

See weather overviewHow to use our weather pages